Regional Weather Roundup
Issued by NWS State College, PA

Home | Current Version | Previous Version | Graphics & Text | Print | Product List | Glossary On
Versions: 1 2 3 4 5 6 7 8 9 10 11 12 13 14 15 16 17 18 19 20 21 22 23 24 25 26 27 28 29 30 31 32 33 34 35 36 37 38 39 40 41 42 43 44 45 46 47 48 49 50
000
ASUS41 KCTP 012010
RWRCTP

REGIONAL WEATHER ROUNDUP
NATIONAL WEATHER SERVICE STATE COLLEGE PA
400 PM EDT WED OCT 01 2014

Note: "fair" indicates few or no clouds below 12,000 feet with no
significant weather and/or obstructions to visibility.

* = STATION THAT DOES NOT REPORT PRECIPITATION /E.G. RAIN...SNOW...ETC/
    THUNDER OR FOG.

PAZ002>004-007>009-013>016-020>023-029>032-012100-
WESTERN PENNSYLVANIA

CITY           SKY/WX    TMP DP  RH WIND       PRES   REMARKS
ERIE           SUNNY     68  58  70 N14       30.02F
MEADVILLE      PTSUNNY   70  56  61 NE5       30.02F
FRANKLIN*      SUNNY     68  54  60 SE5       30.04S
NEW CASTLE     LGT RAIN  66  58  75 CALM      30.03F
BEAVER COUNTY  PTSUNNY   64  55  72 SE5       30.03S
BUTLER*        MOSUNNY   66  55  68 CALM      30.04F
PITTSBURGH INT PTSUNNY   63  56  78 CALM      30.03S
PITTSBURGH     SUNNY     67  55  65 CALM      30.01F FOG
INDIANA*       SUNNY     72  50  46 S3        30.04F
LATROBE        MOSUNNY   72  57  60 VRB6      30.01S
WASHINGTON CO* MOSUNNY   66  55  68 CALM      30.04S
$$

PAZ004>006-010>012-017>019-024>028-033>037-041-042-045-046-049>053-012100-
CENTRAL PENNSYLVANIA

CITY           SKY/WX    TMP DP  RH WIND       PRES   REMARKS
BRADFORD       MOSUNNY   68  52  56 VRB5      30.05F
DUBOIS         SUNNY     67  53  61 SE5       30.03S
CLEARFIELD     MOSUNNY   68  55  63 VRB5      30.04S
JOHNSTOWN      CLOUDY    66  51  58 CALM      30.03F
ALTOONA        SUNNY     66  58  75 E8        30.05S
STATE COLLEGE  PTSUNNY   70  57  64 CALM      30.04S
WILLIAMSPORT   MOSUNNY   72  57  59 CALM      30.01F
SELINSGROVE    SUNNY     72  56  57 CALM      30.02F
FT INDIANTOWN  PTSUNNY   72  60  65 VRB3      30.02F
CAPITAL CITY   PTSUNNY   72  56  57 VRB3      30.02F
HARRISBURG     MOSUNNY   73  59  61 S3        30.01F
YORK           CLOUDY    70  58  65 CALM      30.03S
$$

PAZ038>040-043-044-047-048-054-055-060>062-067>071-012100-
EASTERN PENNSYLVANIA

CITY           SKY/WX    TMP DP  RH WIND       PRES   REMARKS
SCRANTON       PTSUNNY   72  52  49 NE12      30.02S
MOUNT POCONO   CLOUDY    64  53  67 NE9       30.06S
ALLENTOWN      PTSUNNY   71  55  56 E13       30.02S
QUAKERTOWN*    PTCLDY    72  57  60 NE6       30.03S
READING        MOSUNNY   75  55  49 CALM      30.00F
LANCASTER      PTSUNNY   71  57  61 N6        30.02S
COATESVILLE    MOCLDY    70  57  64 N6        30.02F
POTTSTOWN      MOSUNNY   73  56  54 E9        30.02F
BLUE BELL      CLOUDY    70  59  68 NE3       30.01S
DOYLESTOWN     PTSUNNY   68  57  68 NE7       30.02S
WILLOW GROVE   NOT AVBL
NORTH PHILA    CLOUDY    70  56  61 NE12      30.03S
PHILADELPHIA   PTSUNNY   71  57  61 NE9       30.01S
$$


USA.gov is the U.S. government's official web portal to all federal, state and local government web resources and services.